Time[GMT],air_temperature[C](-3m),wind_speed[m/s](-4m),wind_gust[m/s](-4m),wind_direction[degrees](-4m),visibility[m](-3m)
2004-05-14 19:00,9.0,4.3,5.1,156,2639
2004-05-14 20:00,9.4,3.7,4.2,139,2730
2004-05-14 21:00,9.8,3.6,4.4,125,2760
2004-05-14 22:00,10.4,5.2,5.8,130,2794
2004-05-14 23:00,11.5,5.8,6.5,163,2675
2004-05-15 00:00,11.7,5.0,5.9,186,2590
2004-05-15 01:00,11.4,5.8,6.5,189,2560
2004-05-15 02:00,11.4,5.3,6.1,198,2358
2004-05-15 03:00,11.4,5.1,5.6,196,1665
2004-05-15 04:00,10.9,4.2,4.6,193,1395
2004-05-15 05:00,10.6,4.7,5.4,187,1389
2004-05-15 06:00,10.7,5.0,5.6,184, 257
2004-05-15 07:00,10.4,4.7,5.4,183, 479
2004-05-15 08:00,10.2,4.0,4.5,181, 783
2004-05-15 09:00,11.2,3.9,4.7,195,1766
2004-05-15 10:00,11.0,4.4,5.1,195,1707
2004-05-15 11:00,10.8,2.9,3.4,191,1280
2004-05-15 12:00,10.7,3.1,3.6,202,1898
2004-05-15 13:00,11.2,3.0,3.4,201,2151
2004-05-15 14:00,11.3,3.9,4.4,189,2238
2004-05-15 15:00,11.8,5.1,5.6,175,2513
2004-05-15 16:00,12.0,5.4,6.1,172,2583
2004-05-15 17:00,12.3,5.6,6.2,171,2662
2004-05-15 18:00,13.3,5.5,6.3,170,2644
2004-05-15 19:00,13.6,5.0,5.9,170,2683
2004-05-15 20:00,13.9,5.7,6.3,173,2608
2004-05-15 21:00,14.7,5.6,6.4,175,2756
2004-05-15 22:00,15.1,6.6,7.3,185,2831
2004-05-15 23:00,14.8,6.3,7.4,182,2807
2004-05-16 00:00,13.3,5.1,5.6,181,2745
2004-05-16 01:00,15.4,1.2,3.7,300,2817
2004-05-16 02:00,15.1,2.8,3.3,178,2771
2004-05-16 03:00,13.5,3.0,3.8,288,2573
2004-05-16 04:00,14.2,2.3,3.2,222,2561
2004-05-16 05:00,12.4,2.7,3.5,242,2313
2004-05-16 06:00,13.7,4.0,4.5,267,2412
2004-05-16 07:00,12.7,2.9,3.4,253,2249
2004-05-16 08:00,13.7,2.1,3.0,329,2092
2004-05-16 09:00,14.2,2.6,4.1,273,1565
2004-05-16 10:00,13.5,2.9,3.2,  5,2648
2004-05-16 11:00,14.0,3.8,4.3,349,2619
2004-05-16 12:00,13.2,4.6,4.9,349,2243
2004-05-16 13:00,12.6,5.3,6.5, 12,2804
2004-05-16 14:00,11.3,7.5,9.5, 57,2890
2004-05-16 15:00,10.6,5.4,6.5, 26,2333
2004-05-16 16:00,10.5,6.7,8.0, 56,2715
2004-05-16 17:00,10.2,5.4,6.3, 26,2870
2004-05-16 18:00,10.0,5.2,6.5, 20,2891
2004-05-16 19:00,10.4,3.9,4.7, 27,2907
2004-05-16 21:00,10.7,2.9,4.1, 55,2933
2004-05-16 22:00,10.8,1.3,2.5, 72,2956
2004-05-16 23:00,10.8,1.9,2.3, 84,2953
2004-05-17 00:00,10.6,1.2,1.7,105,2958
2004-05-17 01:00,10.0,3.3,3.8,118,2946
2004-05-17 02:00,9.6,1.2,2.3,155,2945
2004-05-17 03:00,9.7,1.3,1.8,261,2943
2004-05-17 04:00,9.8,1.0,1.2,261,2941
2004-05-17 05:00,9.7,0.4,0.9,197,2934
2004-05-17 06:00,9.8,0.5,0.7,279,2909
2004-05-17 07:00,10.0,0.9,1.5,313,2870
2004-05-17 08:00,10.1,0.4,0.8,221,2893
2004-05-17 09:00,10.1,2.4,2.8,184,2850
2004-05-17 10:00,9.8,3.8,4.5,169,2674
2004-05-17 11:00,9.7,4.5,5.4,159,2620
2004-05-17 12:00,9.6,2.7,3.4,183,2503
2004-05-17 13:00,9.8,2.5,2.9,183,2828
2004-05-17 14:00,10.1,2.3,2.7,177,2827
2004-05-17 15:00,10.8,3.3,3.7,174,2903
2004-05-17 16:00,10.3,4.7,5.3,180,2700
2004-05-17 17:00,10.6,3.4,4.2,173,2664
2004-05-17 18:00,10.8,3.9,4.5,168,2582
2004-05-17 19:00,11.0,3.7,4.4,149,2847
2004-05-17 20:00,11.2,5.3,6.1,145,2917
2004-05-17 21:00,11.4,6.2,7.2,151,2737
2004-05-17 22:00,11.5,7.9,9.4,155,2826
2004-05-18 00:00,10.9,9.1,10.7,164,2900
2004-05-18 01:00,11.0,8.6,10.9,172,2889
2004-05-18 02:00,10.8,7.3,8.7,173,2900
2004-05-18 03:00,10.4,7.2,8.3,172,2739
2004-05-18 04:00,10.4,7.9,9.2,183,2482
2004-05-18 05:00,10.2,7.2,8.3,186,1286
2004-05-18 06:00,10.3,5.2,6.5,195,1481
2004-05-18 07:00,10.2,6.2,7.4,168, 816
2004-05-18 08:00,10.3,6.2,6.9,173, 897
2004-05-18 09:00,10.6,6.5,7.4,178, 465
2004-05-18 10:00,10.8,6.4,7.4,173, 915
2004-05-18 11:00,11.1,6.7,7.8,175, 679
2004-05-18 12:00,11.3,6.0,6.9,183, 656
2004-05-18 13:00,11.3,4.3,5.6,190,2164
2004-05-18 14:00,,,,,
2004-05-18 15:00,,,, 78, 460
2004-05-18 16:00,12.1,6.4,7.4,178,2269
2004-05-18 17:00,12.1,5.8,7.1,193,2297
2004-05-18 18:00,13.0,5.9,6.8,197,2456
2004-05-18 19:00,13.8,7.3,8.0,189,2470
2004-05-18 21:00,13.6,6.4,7.1,186,2378
2004-05-18 22:00,12.8,5.1,6.2,177,2094
2004-05-18 23:00,14.5,6.3,7.0,194,2527
2004-05-19 00:00,13.5,5.6,6.7,187,2471
2004-05-19 01:00,13.4,6.8,7.7,189,2401
2004-05-19 02:00,12.8,4.8,5.7,205,2267
2004-05-19 03:00,13.4,4.2,4.7,208,1884
2004-05-19 04:00,13.4,4.9,5.3,203,1215
2004-05-19 05:00,13.1,4.7,5.3,220,1740
2004-05-19 06:00,13.6,7.8,8.6,231,2187
2004-05-19 07:00,13.4,5.8,7.3,242,1957
2004-05-19 08:00,13.1,5.4,6.0,246,2169
2004-05-19 09:00,12.4,4.3,4.8,248,2204
2004-05-19 10:00,13.1,3.6,4.2,255,2106
2004-05-19 11:00,13.3,3.6,4.0,276,2310
2004-05-19 12:00,12.6,2.0,3.3,325,2932
2004-05-19 13:00,13.3,5.5,6.6,344,2923
2004-05-19 14:00,12.6,1.9,3.5,330,2906
2004-05-19 15:00,12.9,4.3,5.3,347,2914
2004-05-19 16:00,13.0,3.5,4.1, 16,2919
2004-05-19 17:00,12.5,3.0,3.4, 64,2900
2004-05-19 18:00,12.5,2.6,3.0, 88,2908
2004-05-19 19:00,12.8,1.7,2.3,108,2903
2004-05-19 20:00,12.9,2.1,2.4, 99,2916
2004-05-19 21:00,12.5,1.8,2.0,216,2923
2004-05-19 22:00,12.6,1.5,1.8,252,2927
2004-05-19 23:00,12.1,1.9,2.2,239,2947
2004-05-20 00:00,11.5,1.9,2.1,231,2943
2004-05-20 01:00,11.8,2.3,2.5,206,2946
2004-05-20 02:00,11.5,1.9,2.1,228,2947
2004-05-20 03:00,11.4,1.6,1.9,163,2950
2004-05-20 04:00,11.4,2.3,2.4,172,2932
2004-05-20 05:00,11.5,2.6,2.9,194,2942
2004-05-20 06:00,11.2,2.0,2.4,250,2933
2004-05-20 07:00,10.9,1.9,2.2,264,2913
2004-05-20 08:00,10.6,1.2,1.5,236,2867
2004-05-20 09:00,11.0,2.2,2.4,209,2893
2004-05-20 10:00,11.2,1.4,2.3,237, 732
2004-05-20 11:00,11.1,2.2,2.6,254,2757
2004-05-20 12:00,11.0,1.5,1.9,267,2746
2004-05-20 13:00,11.6,0.6,1.2,227,2661
2004-05-20 14:00,11.9,1.4,1.6,200,2562
2004-05-20 15:00,12.4,2.3,2.7,147,2602
2004-05-20 16:00,12.4,3.0,3.5,142,2797
2004-05-20 17:00,12.4,3.7,4.5,150,2868
2004-05-20 18:00,12.9,5.3,6.1,149,2835
2004-05-20 19:00,12.5,5.9,6.7,140,2906
2004-05-20 20:00,12.9,6.1,7.0,141,2931
2004-05-20 21:00,12.8,8.7,10.1,150,2780
2004-05-20 22:00,13.2,8.2,9.4,158,2253
2004-05-20 23:00,12.9,8.6,10.0,162,2768
2004-05-21 00:00,12.5,8.3,10.0,163,2942
2004-05-21 01:00,12.0,6.7,8.2,168,2947
2004-05-21 02:00,11.9,6.1,7.1,176,2941
2004-05-21 03:00,11.3,8.5,9.6,170,2906
2004-05-21 04:00,11.1,7.3,8.6,187,2784
2004-05-21 05:00,10.6,7.1,8.7,193,2689
2004-05-21 06:00,10.6,6.3,7.4,213,2855
2004-05-21 07:00,10.6,4.7,5.4,196,2309
2004-05-21 08:00,10.7,4.8,5.4,185,2858
2004-05-21 09:00,10.6,4.0,4.5,195,2859
2004-05-21 10:00,10.5,6.1,6.9,206,2458
2004-05-21 11:00,10.9,4.4,5.9,206,2781
2004-05-21 12:00,10.9,3.1,4.0,217,2809
2004-05-21 13:00,11.1,4.0,4.6,201,2806
2004-05-21 14:00,11.6,5.1,5.6,237,2774
2004-05-21 15:00,12.0,3.2,4.5,222,2768
2004-05-21 16:00,13.4,1.9,3.8,230,2795
2004-05-21 17:00,13.5,1.1,2.0,145,2772
2004-05-21 18:00,13.4,2.7,2.9,189,2757
2004-05-21 19:00,13.8,3.2,3.5,166,2772
2004-05-21 20:00,13.9,3.4,3.7,147,2803
2004-05-21 22:00,14.3,3.2,3.6,128,2813
2004-05-21 23:00,13.7,2.8,3.3,157,2725
2004-05-22 00:00,13.3,2.7,3.0,154,2753
2004-05-22 01:00,13.7,3.5,4.5,170,2790
2004-05-22 02:00,13.2,1.5,2.3, 97,2715
2004-05-22 03:00,13.1,1.3,2.4, 71,2685
2004-05-22 04:00,12.9,0.4,0.7,120,2487
2004-05-22 05:00,12.6,2.0,2.4,135,2445
2004-05-22 06:00,13.1,1.7,2.1,184,2401
2004-05-22 07:00,11.8,2.9,3.4, 53,2316
2004-05-22 08:00,11.9,4.0,5.1, 71,2545
2004-05-22 09:00,11.4,4.2,4.8, 44,2778
2004-05-22 10:00,11.7,5.2,6.1, 63,2942
2004-05-22 12:00,10.2,3.1,3.9,354,2763
2004-05-22 13:00,10.3,3.9,4.4, 45,2527
2004-05-22 14:00,10.4,4.3,5.1, 65, 609
2004-05-22 15:00,9.6,7.9,9.6, 27,2817
2004-05-22 16:00,8.9,8.9,10.6, 26,2858
2004-05-22 17:00,8.7,9.0,10.9, 22,2831
2004-05-22 18:00,8.1,9.1,10.4, 16,2517
2004-05-22 19:00,8.0,8.9,10.9, 10,2519
2004-05-22 20:00,8.2,8.6,10.4,  9,2795
2004-05-22 21:00,8.5,7.6,9.5, 15,2864
2004-05-22 22:00,8.5,7.6,9.3, 13,2843
2004-05-22 23:00,8.2,8.2,9.8, 16,2861
2004-05-23 00:00,8.1,7.5,8.9, 19,2672
2004-05-23 01:00,8.1,6.0,7.5,  6,2870
2004-05-23 02:00,8.3,5.9,7.2, 20,2855
2004-05-23 03:00,8.4,4.7,5.6, 10,2938
2004-05-23 04:00,8.4,4.7,5.4, 23,2895
2004-05-23 05:00,8.5,3.4,4.4, 36,2910
2004-05-23 06:00,8.5,2.2,3.1, 67,2904
2004-05-23 07:00,8.6,1.2,1.9, 80,2924
2004-05-23 08:00,8.5,1.6,2.2, 54,2667
2004-05-23 09:00,8.4,0.6,1.6,253,2549
2004-05-23 10:00,8.5,1.6,2.1,280,2796
2004-05-23 11:00,8.6,1.0,1.7,289,2824
2004-05-23 12:00,8.7,0.6,0.9,257,2899
2004-05-23 13:00,8.9,0.4,0.9,232,2871
2004-05-23 14:00,9.4,0.8,1.1,328,2933
2004-05-23 15:00,10.4,0.3,1.0,358,2867
2004-05-23 16:00,10.2,0.9,1.5,158,2882
2004-05-23 17:00,9.9,3.4,4.2, 43,2677
2004-05-23 18:00,10.0,5.3,6.3, 41,2893
2004-05-23 19:00,10.0,5.0,5.8, 51,2874
2004-05-23 20:00,10.1,3.7,4.6, 43,2924
2004-05-23 21:00,10.1,5.2,6.3, 41,2933
2004-05-23 22:00,10.0,6.0,7.1, 36,2931
2004-05-23 23:00,9.8,4.5,5.8, 55,2940
2004-05-24 00:00,9.9,3.4,4.2, 53,2941
2004-05-24 01:00,10.1,2.2,3.0, 88,2948
2004-05-24 02:00,10.0,2.4,3.1, 70,2949
2004-05-24 03:00,10.0,3.4,4.1, 78,2956
2004-05-24 04:00,10.0,2.2,2.7,144,2956
2004-05-24 05:00,9.9,2.9,3.4,135,2951
2004-05-24 06:00,9.8,3.8,4.4,113,2953
2004-05-24 07:00,9.8,4.5,5.2,110,2948
2004-05-24 08:00,9.6,3.6,4.9,131,2809
2004-05-24 09:00,9.8,5.1,6.5, 17,2928
2004-05-24 10:00,9.9,6.5,7.9, 52,2837
2004-05-24 11:00,9.6,7.1,8.0, 87,2837
2004-05-24 12:00,9.3,6.3,7.4, 91,2724
2004-05-24 13:00,9.4,4.3,6.8, 55,2863
2004-05-24 14:00,9.3,6.5,7.6, 94,2789
2004-05-24 15:00,9.6,7.1,8.1,115,2883
2004-05-24 16:00,9.8,3.9,5.0,132,2922
2004-05-24 17:00,9.9,4.3,4.9,104,2913
2004-05-24 18:00,10.1,3.2,5.3,316,2941
2004-05-24 19:00,9.7,8.0,9.4, 53,2318
2004-05-24 20:00,9.8,7.1,8.7, 96,2846
2004-05-24 21:00,10.1,1.5,4.2, 20,2888
2004-05-24 22:00,9.8,2.2,3.3, 13,2897
2004-05-24 23:00,9.7,4.6,5.1,  7,2947
2004-05-25 00:00,9.7,4.9,6.3, 22,2942
2004-05-25 01:00,9.4,5.7,6.7, 44,2953
2004-05-25 02:00,9.3,6.5,7.7, 29,2688
2004-05-25 03:00,9.1,5.6,7.0, 60,2697
2004-05-25 04:00,8.9,3.4,4.7, 68,2862
2004-05-25 05:00,8.9,4.6,5.5, 40,2888
2004-05-25 06:00,9.1,6.3,7.4, 15,2944
2004-05-25 07:00,9.1,5.3,6.1, 33,2942
2004-05-25 08:00,9.2,5.1,6.0,  6,2956
2004-05-25 09:00,9.2,6.1,7.1,  5,2904
2004-05-25 10:00,9.3,5.5,6.4,  8,2931
2004-05-25 11:00,9.1,5.0,5.6,  8,2872
2004-05-25 12:00,9.1,5.4,6.2,354,2883
2004-05-25 13:00,9.0,7.0,7.9,356,2922
2004-05-25 14:00,9.1,7.3,8.0,  4,2928
2004-05-25 15:00,9.0,7.6,8.7, 13,2907
2004-05-25 16:00,9.2,6.9,8.0, 21,2825
2004-05-25 17:00,9.0,7.1,8.4, 30,2893
2004-05-25 18:00,8.7,7.1,8.9, 49,2890
2004-05-25 19:00,8.6,6.2,7.6, 58,2912
2004-05-25 20:00,8.6,6.3,7.6, 51,2913
2004-05-25 21:00,8.6,6.3,7.7, 48,2934
2004-05-25 22:00,8.7,7.2,8.2, 58,2938
2004-05-25 23:00,8.8,7.7,9.0, 73,2948
2004-05-26 00:00,9.0,5.8,6.7, 65,2947
2004-05-26 01:00,8.8,5.0,5.8, 72,2945
2004-05-26 02:00,8.5,4.2,5.0, 85,2934
2004-05-26 03:00,8.3,4.7,6.0, 91,2934
2004-05-26 04:00,8.5,5.0,5.8,105,2937
2004-05-26 05:00,8.5,4.3,5.8,104,2936
2004-05-26 06:00,8.5,4.8,5.8, 98,2947
2004-05-26 07:00,8.4,5.6,6.6, 96,2951
2004-05-26 08:00,8.4,5.7,7.2, 93,2952
2004-05-26 09:00,8.4,6.0,7.0,122,2948
2004-05-26 10:00,8.0,4.0,14.1,126,1569
2004-05-26 11:00,8.1,4.4,5.2,144,2939
2004-05-26 12:00,8.3,4.0,4.8,159,2939
2004-05-26 14:00,8.0,2.8,3.8,118,2797
2004-05-26 15:00,8.2,2.0,2.6,159,2761
2004-05-26 16:00,8.4,1.3,2.2,125,2838
2004-05-26 17:00,8.6,2.5,3.3,120,2763
2004-05-26 18:00,8.6,3.4,4.3,138,2223
2004-05-26 19:00,8.9,3.8,4.5,123,2901
2004-05-26 21:00,9.2,2.4,2.9,114,2947
2004-05-26 22:00,9.3,4.1,4.8,115,2944
2004-05-26 23:00,9.3,4.2,4.8,135,2948
2004-05-27 00:00,9.4,1.7,2.9,130,2945
2004-05-27 01:00,9.4,4.1,5.2,119,2933
2004-05-27 02:00,9.5,2.0,2.9,137,2923
2004-05-27 03:00,9.4,2.0,2.5,116,2953
2004-05-27 04:00,9.5,2.4,2.9,116,2954
2004-05-27 05:00,9.5,1.7,2.2, 63,2956
2004-05-27 06:00,9.6,1.4,2.0, 13,2951
2004-05-27 07:00,9.6,2.7,3.3, 26,2582
2004-05-27 08:00,9.5,5.3,6.1, 82,2521
2004-05-27 09:00,9.5,0.5,3.5, 50,2861
2004-05-27 10:00,9.6,3.2,4.3,354,2890
2004-05-27 11:00,9.7,5.2,6.4,354,2880
2004-05-27 12:00,9.8,6.8,7.8,359,2886
2004-05-27 13:00,9.9,4.8,5.5,359,2870
2004-05-27 14:00,10.0,5.1,6.0,  1,2899
2004-05-27 15:00,10.6,3.1,3.7,  7,2864
2004-05-27 16:00,11.0,2.7,3.4, 41,2915
2004-05-27 17:00,10.7,4.2,4.8, 80,2878
2004-05-27 18:00,10.3,4.0,4.7,107,2847
2004-05-27 19:00,10.0,4.9,5.6,125,2898
2004-05-27 20:00,10.1,4.2,4.7,106,2793
2004-05-27 21:00,10.1,4.4,5.0,128,2715
2004-05-27 22:00,10.4,2.4,4.1,142,2833
2004-05-27 23:00,10.6,2.5,3.0,149,2905
2004-05-28 00:00,8.6,4.1,5.4,128, 293
2004-05-28 01:00,8.3,4.6,5.6,154, 385
2004-05-28 02:00,8.1,3.9,4.9,138, 719
2004-05-28 03:00,8.3,4.6,5.3,141, 510
2004-05-28 04:00,8.9,4.7,5.5,134, 350
2004-05-28 05:00,9.2,4.9,5.9,154, 346
2004-05-28 06:00,10.2,4.8,6.2,167, 409
2004-05-28 07:00,10.6,5.9,6.9,150, 275
2004-05-28 08:00,10.6,6.6,8.0,173, 289
2004-05-28 09:00,10.3,6.8,8.3,181, 567
2004-05-28 10:00,10.4,6.0,6.9,166, 985
2004-05-28 11:00,10.4,5.8,7.1,159,2472
2004-05-28 12:00,10.5,7.4,9.0,163,2659
2004-05-28 13:00,10.4,8.2,9.8,161,2785
2004-05-28 14:00,10.7,6.7,8.2,171,2478
2004-05-28 15:00,10.4,5.0,6.4,160,2393
2004-05-28 16:00,10.5,7.0,8.0,167,1306
2004-05-28 17:00,10.7,3.2,4.5,155,1888
2004-05-28 18:00,10.7,4.2,5.1,134,2370
2004-05-28 19:00,11.0,4.5,5.3,145,2649
2004-05-28 20:00,11.3,4.2,4.7,170,2925
2004-05-28 21:00,11.2,4.6,5.3,160,2901
2004-05-28 22:00,11.4,4.2,5.9,163,2844
2004-05-28 23:00,11.3,3.1,4.2,158, 833
2004-05-29 00:00,11.3,0.8,2.4,278, 772
2004-05-29 01:00,11.0,3.2,3.7,297,2053
2004-05-29 02:00,11.2,2.5,3.2,290,2885
2004-05-29 03:00,11.3,1.2,2.6,267,2363
2004-05-29 04:00,11.4,4.2,5.1,280,2479
2004-05-29 05:00,12.9,5.4,6.3,308,2954
2004-05-29 06:00,12.8,7.2,9.3,320,2957
2004-05-29 07:00,12.2,9.2,11.4,328,2957
2004-05-29 08:00,11.5,8.0,9.8,315,2959
2004-05-29 09:00,10.9,6.8,8.9,301,2951
2004-05-29 10:00,10.4,7.1,8.5,312,2226
2004-05-29 11:00,10.1,7.6,8.8,301,2718
2004-05-29 12:00,10.3,10.0,12.2,319,2375
2004-05-29 13:00,10.4,10.2,12.0,308,2522
2004-05-29 14:00,10.5,9.9,12.6,309,2799
2004-05-29 15:00,10.9,9.4,11.2,296,2767
2004-05-29 16:00,11.4,8.7,10.8,298,2897
2004-05-29 17:00,12.0,8.2,11.0,314,2829
2004-05-29 18:00,12.4,9.4,11.9,316,2643
2004-05-29 19:00,12.5,9.9,12.3,310,2602
2004-05-29 20:00,12.9,9.4,12.0,313,2916
2004-05-29 21:00,12.9,7.4,9.6,310,2703
2004-05-29 22:00,13.4,8.2,10.4,316,2194
2004-05-29 23:00,13.3,7.2,9.3,307,2744
2004-05-30 00:00,12.2,4.2,5.1,298,2957
2004-05-30 01:00,12.0,3.0,3.8,286,2960
2004-05-30 02:00,10.9,1.7,2.6,252,2959
2004-05-30 03:00,11.6,3.6,4.0,252,2959
2004-05-30 04:00,11.3,4.8,5.9,243,2958
2004-05-30 05:00,11.4,7.7,9.1,271,2955
2004-05-30 06:00,11.0,7.3,8.5,280,2954
2004-05-30 07:00,10.7,6.9,7.8,275,2956
2004-05-30 08:00,10.6,7.6,8.9,288,2957
2004-05-30 09:00,10.4,7.3,8.9,286,2954
2004-05-30 10:00,10.1,7.1,8.2,288,2954
2004-05-30 11:00,10.1,7.3,8.4,288,2234
2004-05-30 12:00,11.3,8.4,11.8,303,2951
2004-05-30 13:00,11.8,8.8,11.1,302,2947
2004-05-30 14:00,12.0,8.1,10.6,314,2877
2004-05-30 15:00,12.5,6.8,7.9,302,2917
2004-05-30 16:00,12.8,6.3,7.2,289,2953
2004-05-30 17:00,13.9,7.5,10.3,281,2826
2004-05-30 18:00,14.2,5.4,6.4,299,2897
2004-05-30 19:00,15.0,6.7,8.2,294,2957
2004-05-30 20:00,15.9,7.3,9.3,310,2960
2004-05-30 21:00,,,,,
2004-05-30 23:00,14.4,3.3,4.0,356,2854
2004-05-31 00:00,13.0,2.3,3.0, 29,2493
2004-05-31 01:00,13.1,3.2,4.3, 36,2959
2004-05-31 02:00,12.8,0.8,2.2,355,2959
2004-05-31 03:00,12.8,1.4,1.6, 33,2960
2004-05-31 04:00,11.8,0.2,0.9,348,2960
2004-05-31 05:00,11.6,1.9,2.2,247,2960
2004-05-31 06:00,11.3,1.2,1.8,271,2957
2004-05-31 07:00,11.3,1.8,2.4,227,2959
2004-05-31 08:00,10.7,0.7,1.0,274,2947
2004-05-31 09:00,10.5,1.0,1.4,337,2947
2004-05-31 10:00,11.1,0.9,1.2,342,2902
2004-05-31 11:00,10.9,0.9,1.4, 23,2939
2004-05-31 12:00,10.8,1.8,2.1,  8,2938
2004-05-31 13:00,11.1,4.1,4.9, 22,2856
2004-05-31 14:00,11.1,2.5,3.0, 30,2948
2004-05-31 15:00,11.5,2.5,3.1, 63,2948
2004-05-31 16:00,11.7,2.8,3.3, 69,2956
2004-05-31 17:00,11.7,3.3,3.7, 90,2949
2004-05-31 18:00,11.8,3.1,4.0,120,2941
2004-05-31 19:00,12.0,4.8,5.6,116,2948
2004-05-31 20:00,12.2,5.2,6.1,125,2931
2004-05-31 21:00,12.1,5.5,6.4,129,2933
2004-05-31 22:00,12.1,5.6,6.5,137,2922
2004-05-31 23:00,11.8,5.2,6.0,134,2948
2004-06-01 00:00,11.6,4.4,4.9,134,2953
2004-06-01 01:00,11.4,4.3,4.9,134,2951
2004-06-01 02:00,11.3,4.7,5.7,132,2959
2004-06-01 03:00,11.2,4.8,5.6,118,2959
2004-06-01 04:00,11.4,4.4,5.2,108,2958
2004-06-01 05:00,11.3,4.9,5.8,112,2959
2004-06-01 06:00,11.3,5.0,5.7,115,2943
2004-06-01 07:00,11.3,6.0,7.1,105,2956
2004-06-01 08:00,11.0,4.3,5.4,110,2889
2004-06-01 09:00,10.9,4.6,5.3,121,2526
2004-06-01 10:00,10.0,4.3,6.0,134,2713
2004-06-01 11:00,8.8,3.4,4.0,111,2395
2004-06-01 13:00,9.5,7.1,8.7,100,2922
2004-06-01 14:00,9.5,5.7,6.8, 93,2885
2004-06-01 15:00,9.4,4.7,5.5, 62,2907
2004-06-01 16:00,9.5,6.4,7.3, 45,2906
2004-06-01 17:00,9.4,6.7,7.8, 61,2925
2004-06-01 18:00,9.5,6.2,7.9, 71,2919
2004-06-01 19:00,9.4,5.9,7.3, 71,2931
2004-06-01 20:00,9.4,5.0,6.4, 74,2941
2004-06-01 21:00,9.4,4.3,5.9, 65,2946
2004-06-01 22:00,9.4,3.1,3.7, 55,2952
2004-06-01 23:00,9.5,3.2,4.4, 54,2947
2004-06-02 00:00,9.6,3.0,3.7, 74,2947
2004-06-02 01:00,9.6,3.8,4.7,100,2953
2004-06-02 02:00,9.4,3.9,4.9,107,2903
2004-06-02 03:00,9.1,3.6,4.9,120,2771
2004-06-02 04:00,9.1,4.0,4.9,125,2561
2004-06-02 05:00,9.1,5.2,6.5,133,2030
2004-06-02 06:00,9.4,4.6,5.7,156,2063
2004-06-02 07:00,9.6,4.7,5.4,164,2631
2004-06-02 08:00,10.1,5.6,6.5,157,2753
2004-06-02 09:00,10.6,6.4,7.7,166,2286
2004-06-02 10:00,10.9,6.5,7.6,171,2438
2004-06-02 11:00,11.0,6.4,7.3,164,2267
2004-06-02 12:00,11.1,6.7,7.7,158,1720
2004-06-02 13:00,11.3,5.7,6.6,162,2194
2004-06-02 14:00,11.4,6.3,7.2,166,1297
2004-06-02 15:00,11.8,4.6,5.4,195,2579
2004-06-02 16:00,12.2,3.2,4.0,194,2594
2004-06-02 17:00,12.6,3.1,3.8,172,2655
2004-06-02 18:00,12.9,3.7,4.3,151,2698
2004-06-02 19:00,13.3,4.3,4.9,160,2794
2004-06-02 20:00,15.2,4.4,5.4,214,2924
2004-06-02 21:00,14.7,3.9,4.9,141,2922
2004-06-02 22:00,14.0,5.1,7.0,169,2950
2004-06-02 23:00,13.2,3.3,4.1,175,2723
2004-06-03 00:00,13.3,5.0,5.9,186,2702
2004-06-03 01:00,13.1,4.8,5.7,191,2809
2004-06-03 02:00,13.0,4.3,5.2,210,2873
2004-06-03 03:00,12.7,3.6,4.2,214,2698
2004-06-03 04:00,12.3,2.4,2.9,250,2526
2004-06-03 05:00,11.7,5.2,6.3,355,2295
2004-06-03 06:00,11.0,4.9,5.9,346,2030
2004-06-03 07:00,10.6,6.4,7.5,  6,1851
2004-06-03 08:00,10.7,6.6,7.6, 13,2522
2004-06-03 09:00,10.9,6.7,7.8,359,2888
2004-06-03 10:00,10.8,5.6,6.7,  9,2927
2004-06-03 11:00,10.6,5.9,6.7, 22,2874
2004-06-03 12:00,10.8,5.7,6.7,340,2939
2004-06-03 13:00,10.7,0.5,3.3,342,2520
2004-06-03 14:00,10.9,1.9,2.2,339,2939
2004-06-03 15:00,11.6,2.3,3.1,212,2945
2004-06-03 16:00,11.8,3.7,4.3,184,2925
2004-06-03 17:00,12.1,3.9,4.7,177,2910
2004-06-03 18:00,12.2,5.7,6.9,160,2919
2004-06-03 19:00,13.0,5.3,6.9, 27,2910
2004-06-03 20:00,12.6,1.1,2.9,267,2694
2004-06-03 21:00,12.8,3.1,3.8,225,2916
2004-06-03 22:00,12.5,3.4,3.9,193,2946
2004-06-03 23:00,12.8,5.1,5.8,200,2954
2004-06-04 00:00,12.9,5.8,6.7,227,2927
2004-06-04 01:00,13.3,2.2,3.8,301,2959
2004-06-04 02:00,12.6,3.6,4.5,250,2959
2004-06-04 03:00,13.1,6.5,7.4,277,2955
2004-06-04 04:00,12.5,5.2,6.3,280,2955
2004-06-04 05:00,12.4,6.2,7.0,288,2956
2004-06-04 06:00,12.2,5.3,6.0,286,2960
2004-06-04 07:00,11.9,6.8,8.0,307,2958
2004-06-04 08:00,11.5,5.9,7.1,283,2957
2004-06-04 09:00,11.0,4.8,6.0,295,2953
2004-06-04 10:00,11.3,5.9,6.8,313,2598
2004-06-04 11:00,11.6,5.3,6.1,315,2822
2004-06-04 12:00,12.0,2.2,4.1,267,2782
2004-06-04 13:00,12.0,2.8,3.3,276,2942
2004-06-04 14:00,12.6,0.4,1.8,190,2939
2004-06-04 15:00,12.5,3.3,3.8,188,2944
2004-06-04 16:00,13.2,1.7,2.2,173,2950
2004-06-04 17:00,14.0,2.8,3.2,154,2956
2004-06-04 18:00,13.7,4.3,4.8,159,2886
2004-06-04 19:00,13.8,5.3,6.7,158,2944
2004-06-04 20:00,13.7,6.7,7.9,172,2689
2004-06-04 21:00,14.1,6.4,7.9,170,2886
2004-06-04 22:00,14.0,6.8,7.6,164,2758
2004-06-04 23:00,13.5,3.3,5.0,156,2935
2004-06-05 00:00,14.2,4.1,4.9,200,2784
2004-06-05 01:00,14.4,5.6,6.9,216,2960
2004-06-05 02:00,14.2,5.8,6.8,235,2958
2004-06-05 03:00,14.2,4.5,5.5,255,2960
2004-06-05 04:00,13.4,2.7,3.1,272,2957
2004-06-05 05:00,13.5,2.8,3.4,325,2957
2004-06-05 06:00,14.2,4.1,4.6, 45,2956
2004-06-05 07:00,13.4,4.3,5.3,119,2959
2004-06-05 08:00,12.9,2.9,3.6, 92,2958
2004-06-05 09:00,13.2,5.1,5.9, 84,2957
2004-06-05 10:00,12.8,4.1,4.7, 95,2948
2004-06-05 11:00,13.2,5.4,6.0,101,2939
2004-06-05 12:00,13.1,4.4,5.1,106,2944
2004-06-05 13:00,12.9,4.2,4.7,107,2924
2004-06-05 14:00,13.1,4.4,5.1, 82,2946
2004-06-05 15:00,13.1,4.3,5.1, 97,2948
2004-06-05 16:00,12.9,3.6,4.4, 96,2913
2004-06-05 17:00,12.9,3.7,4.2, 93,2925
2004-06-05 18:00,12.8,4.0,4.5, 75,2906
2004-06-05 19:00,12.5,3.9,4.5, 54,2873
2004-06-05 20:00,12.4,4.2,4.9, 73,2898
2004-06-05 21:00,12.4,4.2,5.3, 81,2752
2004-06-05 22:00,12.3,4.0,4.7, 76,2607
2004-06-05 23:00,12.4,3.9,4.5, 79,2803
2004-06-06 00:00,12.0,4.9,5.4, 78,2933
2004-06-06 01:00,11.8,5.4,6.3, 80,2957
2004-06-06 02:00,11.7,5.6,6.3, 81,2953
2004-06-06 03:00,11.6,5.0,5.8, 84,2951
2004-06-06 04:00,11.6,4.3,4.9, 77,2953
2004-06-06 05:00,11.4,4.1,4.9, 93,2955
2004-06-06 06:00,11.6,3.3,4.0,119,2953
2004-06-06 07:00,11.6,3.3,4.0,105,2957
2004-06-06 08:00,11.7,3.2,3.8, 76,2955
2004-06-06 09:00,11.7,4.3,5.3, 68,2945
2004-06-06 10:00,12.0,4.4,5.2, 65,2694
2004-06-06 11:00,12.0,4.2,4.9, 68,2831
2004-06-06 12:00,12.0,5.4,6.4, 67,2938
2004-06-06 13:00,11.9,5.8,6.7, 68,2919
2004-06-06 14:00,12.0,5.7,6.7, 70,2929
2004-06-06 15:00,11.9,5.7,6.5, 56,2910
2004-06-06 16:00,12.0,6.4,7.5, 61,2931
2004-06-06 17:00,11.9,7.2,8.7, 70,2916
2004-06-06 18:00,11.8,7.0,8.2, 65,2941
2004-06-06 19:00,11.5,6.1,7.8, 58,2921
2004-06-06 20:00,11.1,6.8,8.0, 49,2338
2004-06-06 21:00,10.7,8.1,9.6, 46,2412
2004-06-06 22:00,10.6,9.0,10.5, 34,1905
2004-06-06 23:00,10.5,9.6,11.4, 34,2266
2004-06-07 00:00,,,,,
2004-06-07 01:00,10.9,8.2,10.1, 34,1597
2004-06-07 02:00,10.9,7.6,9.0, 39,1803
2004-06-07 03:00,10.9,7.8,9.4, 38,2042
2004-06-07 04:00,10.9,7.2,8.4, 39,2596
2004-06-07 05:00,10.7,6.6,8.0, 43,2760
2004-06-07 06:00,10.8,7.0,8.5, 30,2398
2004-06-07 07:00,10.6,7.4,8.7, 19,2659
2004-06-07 08:00,10.6,7.8,9.2, 22,2843
2004-06-07 09:00,10.6,7.8,9.4,  7,2744
2004-06-07 11:00,10.1,7.6,8.9,  2,2895
2004-06-07 12:00,10.0,7.3,8.5,354,2917
2004-06-07 13:00,10.0,7.9,9.3,360,2944
2004-06-07 14:00,9.9,7.2,8.6,  6,2919
2004-06-07 15:00,10.2,4.9,5.9, 12,2913
2004-06-07 16:00,10.4,4.4,5.4, 30,2928
2004-06-07 17:00,10.6,3.4,4.1, 63,2897
2004-06-07 18:00,10.5,3.0,3.6,109,2945
2004-06-07 19:00,10.6,3.8,4.6,120,2941
2004-06-07 20:00,10.8,5.1,5.5,127,2941
2004-06-07 21:00,11.0,5.1,6.0,123,2935
2004-06-07 22:00,11.3,5.7,6.5,127,2927
2004-06-07 23:00,11.6,6.5,7.6,146,2900
2004-06-08 00:00,12.5,6.8,8.4,158,2936
2004-06-08 01:00,13.0,6.2,7.1,159,2907
2004-06-08 03:00,12.9,4.7,5.3,161,2713
2004-06-08 04:00,12.7,2.7,3.6,165,2576
2004-06-08 05:00,12.5,1.8,2.4,  6,2515
2004-06-08 06:00,12.3,2.6,3.2,341,2314
2004-06-08 07:00,12.0,5.6,6.8,355,2775
2004-06-08 08:00,11.0,6.3,7.4,  2,1602
2004-06-08 09:00,10.5,4.4,5.7,  6, 857
2004-06-08 10:00,10.1,3.2,3.9,  8, 801
2004-06-08 11:00,10.1,1.4,2.4,311, 390
2004-06-08 12:00,10.2,1.7,2.5,251, 336
2004-06-08 13:00,10.6,2.4,3.2,232, 734
2004-06-08 14:00,11.4,1.9,2.4,190,2749
2004-06-08 15:00,12.4,2.8,3.2,204,2870
2004-06-08 16:00,13.2,3.7,4.4,171,2898
2004-06-08 17:00,13.9,3.3,4.0,162,2923
2004-06-08 18:00,14.9,3.8,4.4,163,2792
2004-06-08 19:00,15.7,5.5,6.1,164,2731
2004-06-08 20:00,16.1,6.0,7.0,160,2664
2004-06-08 21:00,17.1,7.0,7.8,173,2716
2004-06-08 22:00,17.7,6.9,7.5,184,2651
2004-06-08 23:00,16.9,5.5,6.9,191,2191
2004-06-09 00:00,17.4,5.6,6.1,199,2567
2004-06-09 01:00,,,,,
2004-06-09 02:00,16.5,5.6,6.4,220,2272
2004-06-09 03:00,17.3,6.1,6.9,225,2471
2004-06-09 04:00,16.4,5.1,5.8,222,2310
2004-06-09 05:00,16.4,4.8,5.2,227,2367
2004-06-09 06:00,15.4,4.8,5.5,225,2250